Stena Europe — VSTA3 — position and weather

sailwx.info

Track history (hours):
 
Tides and Currents Weather Stations Pressure Air Temp Water Temp Dewpoint Dewpoint Depression Visibility Wind Speed Wind Dir Waves Ship Positions

Stena Europe

Operator: Stena Line

Last reported at 2020-Jan-28 18:00 UTC. Time now 2020-Jan-28 21:06 UTC.
Position N 52°15' W 006°20'.

Length 149 m; draft 6 m.

Type: Passenger vessel. MMSI: 235004539.

Date/timePositionNaut miles runAvg speedWind from/ knotsBaromVisibWave heightAir tempDewpointWater temp
2020-Jan-28 18:00N 52°15' W 006°20'0 0.0
2020-Jan-28 04:30N 52°15' W 006°20'3 2.5
2020-Jan-28 03:30N 52°15' W 006°16'3 0.3
2020-Jan-27 18:01N 52°16' W 006°20'0 0.3
2020-Jan-27 17:00N 52°15' W 006°20'0 0.3
2020-Jan-27 16:30N 52°15' W 006°20'1514.9
2020-Jan-27 15:30N 52°11' W 005°57'15 1.6
2020-Jan-27 06:00N 52°15' W 006°20'0 0.0
2020-Jan-27 04:00N 52°15' W 006°20'8 0.8
2020-Jan-26 18:31N 52°13' W 006°08'815.3
2020-Jan-26 18:00N 52°16' W 006°20'27 3.1
2020-Jan-26 09:30N 52°09' W 005°37'27 6.7
2020-Jan-26 05:30N 52°15' W 006°20'27 6.7
2020-Jan-26 01:28N 52°08' W 005°38'24 2.6
2020-Jan-25 16:00N 52°15' W 006°16'1817.8
2020-Jan-25 15:00N 52°10' W 005°48'21 3.0
2020-Jan-25 08:00N 52°15' W 006°20'0 0.3
2020-Jan-25 07:29N 52°15' W 006°20'3 0.8
2020-Jan-25 03:30N 52°14' W 006°16'23 2.9
2020-Jan-24 19:30N 52°09' W 005°38'22 6.2
2020-Jan-24 16:00N 52°14' W 006°13'1717.4
2020-Jan-24 15:00N 52°10' W 005°45'22 2.9
2020-Jan-24 07:30N 52°15' W 006°20'0 0.0
2020-Jan-24 06:59N 52°15' W 006°20'3 1.0
2020-Jan-24 03:31N 52°14' W 006°15'1514.8
2020-Jan-24 02:30N 52°10' W 005°52'18 1.8
2020-Jan-23 16:30N 52°15' W 006°20'1211.9
2020-Jan-23 15:30N 52°12' W 006°02'12 1.2
2020-Jan-23 05:59N 52°15' W 006°20'0 0.0
2020-Jan-23 05:29N 52°15' W 006°20'9 0.9
2020-Jan-22 18:45N 52°13' W 006°05'9 0.3
2020-Jan-21 07:29N 52°15' W 006°20'0 0.0
2020-Jan-21 06:59N 52°15' W 006°20'0 0.0
2020-Jan-21 04:00N 52°15' W 006°20'4 8.1
2020-Jan-21 03:30N 52°14' W 006°14'713.8
2020-Jan-21 03:00N 52°13' W 006°03'11 1.3
2020-Jan-20 18:30N 52°15' W 006°20'0 0.0
2020-Jan-20 17:01N 52°15' W 006°20'2512.4
2020-Jan-20 15:00N 52°10' W 005°40'6 1.0
2020-Jan-20 09:05N 52°10' W 005°51'117.5
2020-Jan-20 09:00N 52°11' W 005°53'17 8.7
2020-Jan-20 07:00N 52°15' W 006°20'0 0.0
2020-Jan-20 06:00N 52°15' W 006°20'0 0.0
2020-Jan-20 05:30N 52°15' W 006°20'0 0.0
2020-Jan-20 05:00N 52°15' W 006°20'5 3.2
2020-Jan-20 03:30N 52°14' W 006°13'1615.7
2020-Jan-20 02:30N 52°10' W 005°48'19 2.6
2020-Jan-19 19:00N 52°15' W 006°18'1 2.7
2020-Jan-19 18:31N 52°15' W 006°20'6 3.1
2020-Jan-19 16:30N 52°14' W 006°11'  
Track history (hours):
 
Tides and Currents Weather Stations Pressure Air Temp Water Temp Dewpoint Dewpoint Depression Visibility Wind Speed Wind Dir Waves Ship Positions

Stena Europe

Operator: Stena Line

Last reported at 2020-Jan-28 18:00 UTC. Time now 2020-Jan-28 21:06 UTC.
Position N 52°15' W 006°20'.

Length 149 m; draft 6 m.

Type: Passenger vessel. MMSI: 235004539.

Date/timePositionNaut miles runAvg speedWind from/ knotsBaromVisibWave heightAir tempDewpointWater temp
2020-Jan-28 18:00N 52°15' W 006°20'0 0.0
2020-Jan-28 04:30N 52°15' W 006°20'3 2.5
2020-Jan-28 03:30N 52°15' W 006°16'3 0.3
2020-Jan-27 18:01N 52°16' W 006°20'0 0.3
2020-Jan-27 17:00N 52°15' W 006°20'0 0.3
2020-Jan-27 16:30N 52°15' W 006°20'1514.9
2020-Jan-27 15:30N 52°11' W 005°57'15 1.6
2020-Jan-27 06:00N 52°15' W 006°20'0 0.0
2020-Jan-27 04:00N 52°15' W 006°20'8 0.8
2020-Jan-26 18:31N 52°13' W 006°08'815.3
2020-Jan-26 18:00N 52°16' W 006°20'27 3.1
2020-Jan-26 09:30N 52°09' W 005°37'27 6.7
2020-Jan-26 05:30N 52°15' W 006°20'27 6.7
2020-Jan-26 01:28N 52°08' W 005°38'24 2.6
2020-Jan-25 16:00N 52°15' W 006°16'1817.8
2020-Jan-25 15:00N 52°10' W 005°48'21 3.0
2020-Jan-25 08:00N 52°15' W 006°20'0 0.3
2020-Jan-25 07:29N 52°15' W 006°20'3 0.8
2020-Jan-25 03:30N 52°14' W 006°16'23 2.9
2020-Jan-24 19:30N 52°09' W 005°38'22 6.2
2020-Jan-24 16:00N 52°14' W 006°13'1717.4
2020-Jan-24 15:00N 52°10' W 005°45'22 2.9
2020-Jan-24 07:30N 52°15' W 006°20'0 0.0
2020-Jan-24 06:59N 52°15' W 006°20'3 1.0
2020-Jan-24 03:31N 52°14' W 006°15'1514.8
2020-Jan-24 02:30N 52°10' W 005°52'18 1.8
2020-Jan-23 16:30N 52°15' W 006°20'1211.9
2020-Jan-23 15:30N 52°12' W 006°02'12 1.2
2020-Jan-23 05:59N 52°15' W 006°20'0 0.0
2020-Jan-23 05:29N 52°15' W 006°20'9 0.9
2020-Jan-22 18:45N 52°13' W 006°05'9 0.3
2020-Jan-21 07:29N 52°15' W 006°20'0 0.0
2020-Jan-21 06:59N 52°15' W 006°20'0 0.0
2020-Jan-21 04:00N 52°15' W 006°20'4 8.1
2020-Jan-21 03:30N 52°14' W 006°14'713.8
2020-Jan-21 03:00N 52°13' W 006°03'11 1.3
2020-Jan-20 18:30N 52°15' W 006°20'0 0.0
2020-Jan-20 17:01N 52°15' W 006°20'2512.4
2020-Jan-20 15:00N 52°10' W 005°40'6 1.0
2020-Jan-20 09:05N 52°10' W 005°51'117.5
2020-Jan-20 09:00N 52°11' W 005°53'17 8.7
2020-Jan-20 07:00N 52°15' W 006°20'0 0.0
2020-Jan-20 06:00N 52°15' W 006°20'0 0.0
2020-Jan-20 05:30N 52°15' W 006°20'0 0.0
2020-Jan-20 05:00N 52°15' W 006°20'5 3.2
2020-Jan-20 03:30N 52°14' W 006°13'1615.7
2020-Jan-20 02:30N 52°10' W 005°48'19 2.6
2020-Jan-19 19:00N 52°15' W 006°18'1 2.7
2020-Jan-19 18:31N 52°15' W 006°20'6 3.1
2020-Jan-19 16:30N 52°14' W 006°11'  

Dump ship's entire track history